Location: Fernhill
(41.0167°S, 175.6333°E)
Time: 23:11:42
(UTC+00:00)

Cosmos 1943 - Pass Details

Date: 08 November 2025
Orbit: 832 x 847 km, 71.0° (Epoch: 04 December)

Event Time Altitude Azimuth Distance (km) Brightness Sun altitude
Rises 08:01:42 0° 324° (NW) 3,400 6.4 -10.0°
Reaches altitude 10° 08:04:11 10° 319° (NW) 2,474 5.7 -10.4°
Maximum altitude 08:09:44 53° 242° (WSW) 1,048 4.2 -11.3°
Drops below altitude 10° 08:15:22 10° 165° (SSE) 2,504 5.9 -12.2°
Sets 08:17:55 0° 160° (SSE) 3,446 6.6 -12.6°
